When you browse on this site, cookies collect data to enhance your experience and personalize the content and advertising you see.
Visit our Privacy Policy to learn more. By continuing to use the site, you agree to this use of cookies and data.
  • In Latvia
  • List of Countries
  • For 7 days
  • Water Temperature
  • Weather Map
  • Weather Widgets
  • user-avatar
    Login

    Hourly Weather Mafeteng

    Today, 20 February, Thursday

    Time Temperature Precipitation Wind Pressure Humidity
    00:00 +18°C° 0.1 mm 2 mps 628 mmHg 81%
    01:00 +18°C° 0.1 mm 2 mps 628 mmHg 83%
    02:00 +17°C° 0.1 mm 3 mps 627 mmHg 86%
    03:00 +17°C° 0 mm 3 mps 627 mmHg 86%
    04:00 +17°C° 0 mm 2 mps 627 mmHg 87%
    05:00 +17°C° 0 mm 2 mps 627 mmHg 87%
    06:00 +18°C° 0 mm 2 mps 627 mmHg 83%
    07:00 +18°C° 0 mm 2 mps 628 mmHg 79%
    08:00 +19°C° 0 mm 2 mps 628 mmHg 75%
    09:00 +20°C° 0.3 mm 3 mps 628 mmHg 70%
    10:00 +22°C° 0.3 mm 3 mps 629 mmHg 65%
    11:00 +24°C° 0.3 mm 3 mps 629 mmHg 60%
    12:00 +25°C° 1.1 mm 3 mps 629 mmHg 58%
    13:00 +25°C° 1.1 mm 4 mps 628 mmHg 56%
    14:00 +26°C° 1.1 mm 4 mps 628 mmHg 53%
    15:00 +26°C° 0.7 mm 3 mps 628 mmHg 54%
    16:00 +26°C° 0.7 mm 2 mps 627 mmHg 55%
    17:00 +25°C° 0.7 mm 1 mps 627 mmHg 55%
    18:00 +24°C° 0 mm 1 mps 627 mmHg 60%
    19:00 +22°C° 0 mm 1 mps 626 mmHg 66%
    20:00 +21°C° 0 mm 1 mps 626 mmHg 71%
    21:00 +20°C° 0 mm 1 mps 626 mmHg 73%
    22:00 +20°C° 0 mm 1 mps 626 mmHg 75%
    23:00 +19°C° 0 mm 1 mps 626 mmHg 77%

    Tomorrow, 21 February, Friday

    Time Temperature Precipitation Wind Pressure Humidity
    00:00 +18°C° 0 mm 1 mps 626 mmHg 78%
    01:00 +18°C° 0 mm 1 mps 626 mmHg 79%
    02:00 +18°C° 0 mm 1 mps 626 mmHg 80%
    03:00 +18°C° 0 mm 1 mps 626 mmHg 80%
    04:00 +16°C° 0 mm 1 mps 626 mmHg 80%
    05:00 +16°C° 0 mm 1 mps 625 mmHg 80%
    06:00 +19°C° 0 mm 1 mps 626 mmHg 73%
    07:00 +21°C° 0 mm 1 mps 627 mmHg 66%
    08:00 +23°C° 0 mm 2 mps 628 mmHg 59%
    15:00 +27°C° 0.1 mm 2 mps 627 mmHg 42%
    16:00 +27°C° 0.1 mm 2 mps 627 mmHg 45%
    17:00 +26°C° 0.1 mm 2 mps 626 mmHg 49%
    18:00 +24°C° 0 mm 2 mps 626 mmHg 53%
    19:00 +23°C° 0 mm 1 mps 626 mmHg 57%
    20:00 +22°C° 0 mm 1 mps 626 mmHg 61%
    21:00 +22°C° 0.2 mm 1 mps 626 mmHg 65%
    22:00 +21°C° 0.2 mm 1 mps 626 mmHg 69%
    23:00 +21°C° 0.2 mm 1 mps 627 mmHg 73%

    Day after tomorrow, 22 February, Saturday

    Time Temperature Precipitation Wind Pressure Humidity
    00:00 +20°C° 0.1 mm 1 mps 626 mmHg 74%
    01:00 +20°C° 0.1 mm 1 mps 625 mmHg 76%
    02:00 +19°C° 0.1 mm 1 mps 624 mmHg 77%
    03:00 +19°C° 0.1 mm 1 mps 625 mmHg 76%
    04:00 +19°C° 0.1 mm 1 mps 625 mmHg 75%
    05:00 +19°C° 0.1 mm 1 mps 625 mmHg 75%
    06:00 +19°C° 0.2 mm 2 mps 625 mmHg 72%
    07:00 +20°C° 0.2 mm 2 mps 626 mmHg 70%
    08:00 +21°C° 0.2 mm 3 mps 626 mmHg 68%
    09:00 +22°C° 0.6 mm 3 mps 627 mmHg 65%
    10:00 +24°C° 0.6 mm 3 mps 627 mmHg 61%
    11:00 +26°C° 0.6 mm 4 mps 627 mmHg 57%
    12:00 +26°C° 1 mm 4 mps 626 mmHg 55%
    13:00 +27°C° 1 mm 4 mps 626 mmHg 53%
    14:00 +27°C° 1 mm 4 mps 626 mmHg 51%
    15:00 +26°C° 0.8 mm 4 mps 625 mmHg 55%
    16:00 +25°C° 0.8 mm 3 mps 625 mmHg 58%
    17:00 +24°C° 0.8 mm 3 mps 624 mmHg 61%
    18:00 +23°C° 0.5 mm 2 mps 624 mmHg 66%
    19:00 +21°C° 0.5 mm 2 mps 625 mmHg 71%
    20:00 +21°C° 0.5 mm 1 mps 625 mmHg 76%
    21:00 +20°C° 0.3 mm 1 mps 625 mmHg 79%
    22:00 +19°C° 0.3 mm 1 mps 625 mmHg 82%
    23:00 +19°C° 0.3 mm 1 mps 626 mmHg 84%

    23 February, Sunday

    Time Temperature Precipitation Wind Pressure Humidity
    00:00 +18°C° 0.1 mm 1 mps 625 mmHg 85%
    01:00 +18°C° 0.1 mm 1 mps 625 mmHg 85%
    02:00 +16°C° 0.1 mm 1 mps 625 mmHg 86%
    03:00 +16°C° 0.1 mm 1 mps 625 mmHg 86%
    04:00 +15°C° 0.1 mm 1 mps 625 mmHg 86%
    05:00 +15°C° 0.1 mm 1 mps 626 mmHg 86%
    06:00 +16°C° 0 mm 1 mps 626 mmHg 81%
    07:00 +17°C° 0 mm 2 mps 627 mmHg 77%
    08:00 +18°C° 0 mm 2 mps 627 mmHg 72%
    09:00 +19°C° 0.4 mm 2 mps 628 mmHg 66%
    10:00 +21°C° 0.4 mm 2 mps 628 mmHg 59%
    11:00 +24°C° 0.4 mm 2 mps 628 mmHg 53%
    12:00 +25°C° 0.1 mm 2 mps 629 mmHg 48%
    13:00 +26°C° 0.1 mm 2 mps 629 mmHg 43%
    14:00 +27°C° 0.1 mm 2 mps 629 mmHg 37%
    15:00 +27°C° 0 mm 2 mps 629 mmHg 36%
    16:00 +27°C° 0 mm 2 mps 628 mmHg 35%
    17:00 +27°C° 0 mm 2 mps 628 mmHg 34%
    18:00 +25°C° 0 mm 2 mps 628 mmHg 44%
    19:00 +22°C° 0 mm 3 mps 628 mmHg 55%
    20:00 +19°C° 0 mm 3 mps 627 mmHg 65%
    21:00 +18°C° 0 mm 3 mps 628 mmHg 69%
    22:00 +17°C° 0 mm 2 mps 628 mmHg 72%
    23:00 +16°C° 0 mm 1 mps 628 mmHg 76%

    24 February, Monday

    Time Temperature Precipitation Wind Pressure Humidity
    00:00 +16°C° 0 mm 1 mps 627 mmHg 77%
    01:00 +15°C° 0 mm 1 mps 627 mmHg 78%
    02:00 +14°C° 0 mm 1 mps 627 mmHg 79%
    03:00 +14°C° 0 mm 1 mps 627 mmHg 81%
    04:00 +13°C° 0 mm 1 mps 627 mmHg 83%
    05:00 +13°C° 0 mm 1 mps 627 mmHg 85%
    06:00 +14°C° 0 mm 1 mps 627 mmHg 81%
    07:00 +15°C° 0 mm 1 mps 628 mmHg 77%
    08:00 +16°C° 0 mm 1 mps 628 mmHg 73%
    09:00 +19°C° 0 mm 1 mps 629 mmHg 66%
    10:00 +20°C° 0 mm 2 mps 629 mmHg 60%
    11:00 +23°C° 0 mm 2 mps 630 mmHg 53%
    12:00 +24°C° 0 mm 2 mps 629 mmHg 47%
    13:00 +25°C° 0 mm 2 mps 629 mmHg 40%
    14:00 +26°C° 0 mm 3 mps 629 mmHg 34%
    15:00 +27°C° 0 mm 2 mps 629 mmHg 32%
    16:00 +27°C° 0 mm 2 mps 629 mmHg 30%
    17:00 +27°C° 0 mm 2 mps 628 mmHg 29%
    18:00 +25°C° 0 mm 2 mps 628 mmHg 34%
    19:00 +23°C° 0 mm 1 mps 627 mmHg 40%
    20:00 +20°C° 0 mm 1 mps 627 mmHg 46%
    21:00 +20°C° 0 mm 1 mps 627 mmHg 47%
    22:00 +17°C° 0 mm 0 mps 627 mmHg 49%
    23:00 +16°C° 0 mm 0 mps 627 mmHg 51%

    25 February, Tuesday

    Time Temperature Precipitation Wind Pressure Humidity
    00:00 +16°C° 0 mm 0 mps 626 mmHg 51%
    01:00 +16°C° 0 mm 0 mps 626 mmHg 52%
    02:00 +15°C° 0 mm 0 mps 626 mmHg 52%
    03:00 +16°C° 0 mm 1 mps 626 mmHg 53%
    04:00 +16°C° 0 mm 2 mps 626 mmHg 54%
    05:00 +16°C° 0 mm 2 mps 626 mmHg 54%
    06:00 +17°C° 0 mm 2 mps 627 mmHg 52%
    07:00 +18°C° 0 mm 2 mps 627 mmHg 50%
    08:00 +20°C° 0 mm 2 mps 628 mmHg 48%
    09:00 +21°C° 0 mm 2 mps 628 mmHg 45%
    10:00 +24°C° 0 mm 2 mps 629 mmHg 42%
    11:00 +26°C° 0 mm 2 mps 629 mmHg 39%
    12:00 +27°C° 0 mm 2 mps 629 mmHg 35%
    13:00 +28°C° 0 mm 2 mps 629 mmHg 32%
    14:00 +29°C° 0 mm 1 mps 628 mmHg 28%
    15:00 +29°C° 0 mm 1 mps 628 mmHg 27%
    16:00 +29°C° 0 mm 1 mps 628 mmHg 26%
    17:00 +29°C° 0 mm 1 mps 628 mmHg 25%
    18:00 +27°C° 0 mm 1 mps 627 mmHg 30%
    19:00 +25°C° 0 mm 1 mps 627 mmHg 34%
    20:00 +23°C° 0 mm 1 mps 626 mmHg 38%
    21:00 +22°C° 0 mm 1 mps 626 mmHg 41%
    22:00 +21°C° 0 mm 1 mps 626 mmHg 43%
    23:00 +18°C° 0 mm 0 mps 626 mmHg 46%
    Show more